{"data":{"norad_id":53837,"epoch":"2026-09-20T22:52:29.536032Z","epoch_age_seconds":45160,"freshness":"FRESH","line1":"1 53837U 22114V   26263.95311963  .00000049  00000+0  21153-4 0  9990","line2":"2 53837  53.1594 146.5939 0001396  92.2657 267.8494 15.08837403222311","mean_motion":15.08837403,"eccentricity":0.0001396,"inclination_deg":53.1594,"raan_deg":146.5939,"arg_perigee_deg":92.2657,"mean_anomaly_deg":267.8494,"bstar":2.1153e-5,"rev_number":22231,"period_min":95.437718944193,"perigee_km":538.7855897551,"apogee_km":540.71706417599,"semimajor_km":6917.8883269655,"source":"CELESTRAK","updated_at":"2026-09-21T09:00:33.001384Z"}}